This demonstration page uses our WeatherBlox Daily Observations layout. Learn more.

Left ArrowRight Arrow

Hourly Observations for May 5, 2020

Temp ( °F °C ) Dew Point ( °F °C ) Humidity (%) Winds ( mph kmh ) Pressure ( in mb ) Visibility ( mi km ) Precip ( " mm )
12:15 am 00:15 Clear 46 7.5 41 5 84 84 NW 8 13 30.13 1020 10 16.0934 0 0
12:35 am 00:35 Clear 45 7.3 42 5.3 87 87 NW 7 11 30.13 1020 10 16.0934 0 0
12:55 am 00:55 Clear 46 7.6 42 5.4 86 86 NW 6 9 30.11 1020 10 16.0934 0 0
1:15 am 01:15 Clear 46 7.6 41 5.1 84 84 NW 10 17 30.11 1020 10 16.0934 0 0
1:35 am 01:35 Clear 46 7.7 41 4.8 82 82 NW 10 17 30.11 1020 10 16.0934 0 0
1:55 am 01:55 Clear 47 8.2 40 4.5 78 78 WNW 12 19 30.11 1020 10 16.0934 0 0
2:15 am 02:15 Clear 47 8.6 40 4.2 74 74 WNW 14 22 30.11 1019 10 16.0934 0 0
2:35 am 02:35 Clear 47 8.1 40 4.3 77 77 WNW 14 22 30.11 1020 10 16.0934 0 0
2:55 am 02:55 Clear 46 7.6 40 4.5 81 81 NW 12 19 30.11 1020 10 16.0934 0 0
3:15 am 03:15 Clear 46 7.7 40 4.6 81 81 NW 13 20 30.11 1020 10 16.0934 0 0
3:35 am 03:35 Clear 46 7.7 40 4.5 80 80 NW 13 20 30.11 1020 10 16.0934 0 0
3:55 am 03:55 Clear 46 7.5 40 4.5 81 81 NW 10 17 30.13 1020 10 16.0934 0 0
4:15 am 04:15 Clear 45 7.2 40 4.5 83 83 NW 9 15 30.13 1020 10 16.0934 0 0
4:35 am 04:35 Clear 46 7.5 40 4.5 81 81 NW 10 17 30.13 1020 10 16.0934 0 0
4:55 am 04:55 Clear 45 7.2 40 4.3 82 82 NW 9 15 30.14 1021 10 16.0934 0 0
5:15 am 05:15 Clear 45 7 40 4.3 83 83 NW 9 15 30.14 1021 10 16.0934 0 0
5:35 am 05:35 Clear 44 6.6 40 4.2 85 85 NW 9 15 30.14 1021 10 16.0934 0 0
5:55 am 05:55 Clear 43 6.3 39 4 85 85 NW 8 13 30.15 1021 10 16.0934 0 0
6:15 am 06:15 Clear 44 6.5 39 4 84 84 WNW 7 11 30.15 1021 10 16.0934 0 0
6:35 am 06:35 Sunny 43 6.2 39 3.9 85 85 WNW 9 15 30.17 1022 10 16.0934 0 0
6:55 am 06:55 Sunny 44 6.5 39 4 84 84 WNW 9 15 30.16 1021 10 16.0934 0 0
8:35 am 08:35 Sunny 51 10.6 42 5.5 71 71 NW 12 19 30.16 1021 10 16.0934 0 0
8:55 am 08:55 Sunny 53 11.8 43 5.9 67 67 WNW 13 20 30.16 1021 10 16.0934 0 0
9:15 am 09:15 Sunny 54 12.3 42 5.6 64 64 WNW 15 24 30.16 1021 10 16.0934 0 0
9:35 am 09:35 Sunny 56 13.1 42 5.3 59 59 WNW 15 24 30.16 1021 10 16.0934 0 0
9:55 am 09:55 Sunny 57 14 41 4.9 55 55 WNW 16 26 30.15 1021 10 16.0934 0 0
10:15 am 10:15 Sunny 59 15 41 4.8 51 51 WNW 15 24 30.13 1020 10 16.0934 0 0
10:35 am 10:35 Sunny 60 15.6 40 4.7 49 49 NW 15 24 30.12 1020 10 16.0934 0 0
10:55 am 10:55 Sunny 61 16.2 40 4.3 45 45 NW 18 30 30.12 1020 10 16.0934 0 0
11:15 am 11:15 Sunny 62 16.6 40 4.4 45 45 NW 16 26 30.12 1020 10 16.0934 0 0
11:35 am 11:35 Sunny 63 17.1 38 3.6 41 41 NW 15 24 30.11 1020 10 16.0934 0 0
11:55 am 11:55 Sunny 63 17.1 38 3.2 40 40 NW 15 24 30.11 1020 10 16.0934 0 0
12:15 pm 12:15 Sunny 63 17.4 38 3.3 39 39 NNW 15 24 30.11 1020 10 16.0934 0 0
12:35 pm 12:35 Sunny 64 18 38 3.5 38 38 NW 17 28 30.09 1019 10 16.0934 0 0
12:55 pm 12:55 Sunny 65 18.1 37 2.5 35 35 NNW 16 26 30.09 1019 10 16.0934 0 0
1:15 pm 13:15 Sunny 65 18.1 37 2.5 35 35 NW 15 24 30.09 1019 10 16.0934 0 0
1:35 pm 13:35 Sunny 66 18.7 35 1.7 32 32 NW 14 22 30.09 1019 10 16.0934 0 0
1:55 pm 13:55 Sunny 66 19 36 2.4 33 33 NW 13 20 30.08 1018 10 16.0934 0 0
2:15 pm 14:15 Sunny 66 19.1 36 2 32 32 WNW 12 19 30.07 1018 10 16.0934 0 0
2:35 pm 14:35 Partly Cloudy 67 19.5 35 1.7 31 31 NW 17 28 30.06 1018 10 16.0934 0 0
2:55 pm 14:55 Partly Cloudy 68 20.1 36 2.4 31 31 NNW 16 26 30.06 1018 10 16.0934 0 0
3:15 pm 15:15 Partly Cloudy 68 20.2 37 2.5 31 31 NW 15 24 30.05 1017 10 16.0934 0 0
3:35 pm 15:35 Partly Cloudy 69 20.4 35 1.9 29 29 N 12 19 30.04 1017 10 16.0934 0 0
3:55 pm 15:55 Partly Cloudy 68 19.9 36 2.4 31 31 NW 13 20 30.05 1018 10 16.0934 0 0
4:15 pm 16:15 Mostly Cloudy 69 20.6 35 1.7 29 29 NW 15 24 30.04 1017 10 16.0934 0 0
4:35 pm 16:35 Partly Cloudy 66 19.1 34 0.9 30 30 NW 12 19 30.04 1017 10 16.0934 0 0
4:55 pm 16:55 Partly Cloudy 66 18.8 33 0.8 30 30 NNW 9 15 30.05 1017 10 16.0934 0 0
5:15 pm 17:15 Partly Cloudy 68 19.8 34 1.1 29 29 NNW 15 24 30.04 1017 10 16.0934 0 0
5:35 pm 17:35 Sunny 69 20.5 34 1.2 28 28 NNW 13 20 30.03 1017 10 16.0934 0 0
5:55 pm 17:55 Partly Cloudy 68 20.2 32 0.1 26 26 NNW 15 24 30.05 1017 10 16.0934 0 0
6:15 pm 18:15 Mostly Cloudy 68 20 33 0.4 27 27 NNW 9 15 30.05 1017 10 16.0934 0 0
6:35 pm 18:35 Partly Cloudy 68 19.9 31 -0.4 26 26 N 9 15 30.05 1018 10 16.0934 0 0
6:55 pm 18:55 Sunny 67 19.4 31 -0.3 27 27 NNE 10 17 30.05 1018 10 16.0934 0 0
7:15 pm 19:15 Sunny 65 18.3 32 -0.1 29 29 N 9 15 30.06 1018 10 16.0934 0 0
7:35 pm 19:35 Sunny 65 18.3 32 0 29 29 N 12 19 30.06 1018 10 16.0934 0 0
7:55 pm 19:55 Sunny 63 17.1 33 0.3 32 32 NNE 10 17 30.06 1018 10 16.0934 0 0
8:15 pm 20:15 Sunny 60 15.6 34 1.1 38 38 NNE 7 11 30.08 1019 10 16.0934 0 0
8:35 pm 20:35 Sunny 57 14.1 34 1 41 41 NNE 10 17 30.1 1019 10 16.0934 0 0
8:55 pm 20:55 Clear 55 12.6 36 2 49 49 NNE 7 11 30.12 1020 10 16.0934 0 0
9:15 pm 21:15 Clear 52 11.3 35 1.8 52 52 NNE 7 11 30.15 1021 10 16.0934 0 0
9:35 pm 21:35 Clear 53 11.4 35 1.5 51 51 NNE 15 24 30.16 1021 10 16.0934 0 0
9:55 pm 21:55 Partly Cloudy 53 11.9 37 3 55 55 NE 16 26 30.19 1022 10 16.0934 0 0
10:15 pm 22:15 Partly Cloudy 52 11.2 37 3 57 57 NE 13 20 30.21 1023 10 16.0934 0 0
10:35 pm 22:35 Clear 51 10.6 37 2.7 58 58 NNE 10 17 30.23 1024 10 16.0934 0 0
10:55 pm 22:55 Partly Cloudy 50 10.2 37 2.9 61 61 NE 9 15 30.23 1024 10 16.0934 0 0
11:15 pm 23:15 Partly Cloudy 48 9 37 3 66 66 NNE 6 9 30.24 1024 10 16.0934 0 0
11:35 pm 23:35 Partly Cloudy 48 8.8 38 3.1 68 68 NNE 5 7 30.24 1024 10 16.0934 0 0
11:55 pm 23:55 Clear 48 8.7 37 3 68 68 Calm 30.24 1024 10 16.0934 0 0

Powered by AerisWeather